date,City,No. Stations,Air Quality,Index Value,Prominent Pollutant
2015-09-18,Patna,1.0,Moderate,107,PM10
2015-09-19,Patna,1.0,Moderate,136,PM10
2015-09-22,Patna,1.0,Satisfactory,93,PM10
2015-09-23,Patna,1.0,Moderate,102,PM10
2015-09-25,Patna,1.0,Moderate,136,PM10
2015-09-26,Patna,1.0,Moderate,153,PM10
2015-09-28,Patna,1.0,Moderate,163,PM10
2015-09-29,Patna,1.0,Poor,221,PM10
2015-10-01,Patna,1.0,Poor,247,PM10
2015-10-03,Patna,1.0,Moderate,165,PM2.5
2015-10-06,Patna,1.0,Poor,258,PM2.5
2015-10-07,Patna,1.0,Poor,239,PM2.5
2015-10-08,Patna,1.0,Poor,258,PM2.5
2015-10-17,Patna,1.0,Moderate,177,PM2.5
2015-10-21,Patna,1.0,Poor,210,PM2.5
2015-10-23,Patna,1.0,Very Poor,301,PM2.5
2015-10-27,Patna,1.0,Poor,284,PM2.5
2015-10-30,Patna,1.0,Moderate,117,PM2.5
2015-10-31,Patna,1.0,Moderate,197,PM2.5
2015-11-04,Patna,1.0,Poor,266,PM2.5
2015-11-05,Patna,1.0,Poor,271,PM2.5
2015-11-06,Patna,1.0,Very Poor,313,PM2.5
2015-11-07,Patna,1.0,Very Poor,366,PM2.5
2015-11-09,Patna,1.0,Very Poor,342,PM2.5
2015-11-10,Patna,1.0,Very Poor,375,PM2.5
2015-11-11,Patna,1.0,Very Poor,360,PM2.5
2015-11-12,Patna,1.0,Very Poor,386,PM2.5
2015-11-13,Patna,1.0,Very Poor,359,PM2.5
2015-11-14,Patna,1.0,Very Poor,384,PM2.5
2015-11-21,Patna,1.0,Severe,425,PM2.5
2015-11-24,Patna,1.0,Severe,439,PM2.5
2015-11-25,Patna,1.0,Severe,405,PM2.5
2015-11-26,Patna,1.0,Severe,401,PM2.5
2015-12-01,Patna,1.0,Very Poor,396,PM2.5
2015-12-02,Patna,1.0,Severe,403,PM2.5
2015-12-03,Patna,1.0,Poor,245,PM2.5
2015-12-05,Patna,1.0,Severe,410,PM2.5
2015-12-07,Patna,1.0,Very Poor,338,PM2.5
2015-12-09,Patna,1.0,Very Poor,335,PM2.5
2015-12-11,Patna,1.0,Very Poor,340,PM2.5
2015-12-12,Patna,1.0,Very Poor,383,PM2.5
2015-12-14,Patna,1.0,Very Poor,378,PM2.5
2015-12-15,Patna,1.0,Very Poor,336,PM2.5
2015-12-16,Patna,1.0,Severe,405,PM2.5
2015-12-17,Patna,1.0,Severe,402,PM2.5
2015-12-19,Patna,1.0,Severe,406,PM2.5
2015-12-23,Patna,1.0,Severe,415,PM2.5
2015-12-24,Patna,1.0,Severe,421,PM2.5
2015-12-26,Patna,1.0,Very Poor,357,PM2.5
2016-01-01,Patna,1.0,Severe,488,PM2.5
2016-01-02,Patna,1.0,Severe,466,PM2.5
2016-01-04,Patna,1.0,Severe,424,PM2.5
2016-01-05,Patna,1.0,Severe,439,PM2.5
2016-01-06,Patna,1.0,Severe,453,PM2.5
2016-01-07,Patna,1.0,Severe,434,PM2.5
2016-01-09,Patna,1.0,Very Poor,379,PM2.5
2016-01-10,Patna,1.0,Poor,297,PM2.5
2016-01-11,Patna,1.0,Very Poor,347,PM2.5
2016-01-12,Patna,1.0,Severe,404,PM2.5
2016-01-13,Patna,1.0,Severe,429,PM2.5
2016-01-14,Patna,1.0,Severe,440,PM2.5
2016-01-15,Patna,1.0,Severe,443,PM2.5
2016-01-16,Patna,1.0,Very Poor,370,PM2.5
2016-01-18,Patna,1.0,Very Poor,368,PM2.5
2016-01-20,Patna,1.0,Very Poor,348,PM2.5
2016-01-21,Patna,1.0,Very Poor,362,PM2.5
2016-01-22,Patna,1.0,Very Poor,331,PM2.5
2016-01-23,Patna,1.0,Very Poor,349,PM2.5
2016-01-25,Patna,1.0,Severe,421,PM2.5
2016-01-27,Patna,1.0,Very Poor,384,PM2.5
2016-01-30,Patna,1.0,Severe,441,PM2.5
2016-02-01,Patna,1.0,Severe,426,PM2.5
2016-02-03,Patna,1.0,Poor,285,PM2.5
2016-02-04,Patna,1.0,Poor,273,PM2.5
2016-02-12,Patna,1.0,Very Poor,342,PM2.5
2016-02-15,Patna,1.0,Very Poor,327,PM2.5
2016-02-18,Patna,1.0,Poor,287,PM2.5
2016-02-20,Patna,1.0,Poor,270,PM2.5
2016-02-23,Patna,1.0,Moderate,178,PM2.5
2016-02-25,Patna,1.0,Poor,294,PM2.5
2016-02-26,Patna,1.0,Poor,269,PM2.5
2016-02-27,Patna,1.0,Poor,233,PM2.5
2016-02-29,Patna,1.0,Poor,290,PM2.5
2016-03-02,Patna,1.0,Poor,281,PM2.5
2016-03-03,Patna,1.0,Very Poor,321,PM2.5
2016-03-05,Patna,1.0,Very Poor,364,PM2.5
2016-03-08,Patna,1.0,Moderate,123,PM2.5
2016-03-09,Patna,1.0,Moderate,186,PM2.5
2016-03-12,Patna,1.0,Moderate,155,PM2.5
2016-03-14,Patna,1.0,Moderate,116,PM2.5
2016-03-15,Patna,1.0,Moderate,150,PM2.5
2016-03-22,Patna,1.0,Satisfactory,83,PM2.5
2016-03-28,Patna,1.0,Moderate,192,PM2.5
2016-03-29,Patna,1.0,Moderate,159,PM2.5
2016-03-31,Patna,1.0,Poor,246,PM2.5
2016-04-01,Patna,1.0,Poor,246,PM2.5
2016-04-03,Patna,1.0,Moderate,170,PM2.5
2016-04-04,Patna,1.0,Moderate,186,PM2.5
2016-04-05,Patna,1.0,Poor,225,PM2.5
2016-04-07,Patna,1.0,Moderate,115,PM2.5
2016-04-08,Patna,1.0,Moderate,118,PM2.5
2016-04-09,Patna,1.0,Moderate,133,PM2.5
2016-04-11,Patna,1.0,Moderate,126,PM2.5
2016-04-12,Patna,1.0,Moderate,112,PM2.5
2016-04-13,Patna,1.0,Satisfactory,84,PM2.5
2016-04-14,Patna,1.0,Moderate,137,PM2.5
2016-04-16,Patna,1.0,Moderate,167,PM2.5
2016-04-20,Patna,1.0,Moderate,182,PM2.5
2016-04-21,Patna,1.0,Moderate,128,PM2.5
2016-04-22,Patna,1.0,Moderate,126,PM2.5
2016-04-23,Patna,1.0,Moderate,157,PM2.5
2016-04-27,Patna,1.0,Poor,222,PM2.5
2016-04-29,Patna,1.0,Poor,233,PM2.5
2016-04-30,Patna,1.0,Moderate,189,PM2.5
2016-05-02,Patna,1.0,Moderate,199,PM2.5
2016-05-03,Patna,1.0,Moderate,134,PM2.5
2016-05-04,Patna,1.0,Moderate,143,PM2.5
2016-05-05,Patna,1.0,Moderate,115,PM2.5
2016-05-06,Patna,1.0,Poor,260,PM2.5
2016-05-07,Patna,1.0,Moderate,188,PM2.5
2016-05-11,Patna,1.0,Moderate,111,PM2.5
2016-05-12,Patna,1.0,Moderate,114,PM2.5
2016-05-13,Patna,1.0,Moderate,125,PM2.5
2016-05-14,Patna,1.0,Moderate,115,PM2.5
2016-05-16,Patna,1.0,Moderate,120,PM2.5
2016-05-18,Patna,1.0,Moderate,105,PM2.5
2016-05-19,Patna,1.0,Satisfactory,80,PM2.5
2016-05-20,Patna,1.0,Satisfactory,64,PM2.5
2016-05-23,Patna,1.0,Satisfactory,97,PM2.5
2016-05-24,Patna,1.0,Moderate,110,PM2.5
2016-05-28,Patna,1.0,Poor,251,PM2.5
2016-06-02,Patna,1.0,Moderate,147,PM2.5
2016-06-09,Patna,1.0,Moderate,144,PM2.5
2016-06-20,Patna,1.0,Satisfactory,82,PM2.5
2016-06-21,Patna,1.0,Satisfactory,84,PM2.5
2016-06-22,Patna,1.0,Satisfactory,67,PM2.5
2016-06-23,Patna,1.0,Moderate,111,PM2.5
2016-06-24,Patna,1.0,Moderate,104,PM2.5
2016-06-27,Patna,1.0,Moderate,132,PM2.5
2016-06-28,Patna,1.0,Satisfactory,99,PM2.5
2016-06-29,Patna,1.0,Satisfactory,73,PM2.5
2016-07-02,Patna,1.0,Satisfactory,66,PM2.5
2016-07-05,Patna,1.0,Satisfactory,60,PM2.5
2016-07-06,Patna,1.0,Satisfactory,71,PM2.5
2016-07-07,Patna,1.0,Satisfactory,80,PM2.5
2016-07-10,Patna,1.0,Satisfactory,62,PM2.5
2016-07-11,Patna,1.0,Satisfactory,63,PM2.5
2016-07-12,Patna,1.0,Satisfactory,54,PM2.5
2016-07-14,Patna,1.0,Moderate,118,PM2.5
2016-07-15,Patna,1.0,Satisfactory,76,PM2.5
2016-07-18,Patna,1.0,Good,50,PM2.5
2016-07-19,Patna,1.0,Satisfactory,80,PM2.5
2016-07-20,Patna,1.0,Satisfactory,78,PM2.5
2016-07-25,Patna,1.0,Satisfactory,77,PM2.5
2016-07-26,Patna,1.0,Satisfactory,79,PM2.5
2016-07-27,Patna,1.0,Satisfactory,63,PM2.5
2016-07-28,Patna,1.0,Moderate,114,PM2.5
2016-07-29,Patna,1.0,Satisfactory,83,PM2.5
2016-07-30,Patna,1.0,Satisfactory,98,PM2.5
2016-08-01,Patna,1.0,Satisfactory,85,PM2.5
2016-08-02,Patna,1.0,Moderate,137,PM2.5
2016-08-03,Patna,1.0,Good,48,PM2.5
2016-08-04,Patna,1.0,Good,47,PM2.5
2016-08-05,Patna,1.0,Satisfactory,70,PM2.5
2016-08-06,Patna,1.0,Satisfactory,70,PM2.5
2016-08-07,Patna,1.0,Good,41,PM2.5
2016-08-08,Patna,1.0,Good,48,PM2.5
2016-08-09,Patna,1.0,Satisfactory,74,PM2.5
2016-08-10,Patna,1.0,Moderate,101,PM2.5
2016-08-11,Patna,1.0,Satisfactory,59,CO
2016-08-12,Patna,1.0,Satisfactory,53,CO
2016-08-13,Patna,1.0,Satisfactory,58,PM2.5
2016-08-14,Patna,1.0,Moderate,105,PM2.5
2016-08-15,Patna,1.0,Moderate,106,PM2.5
2016-08-16,Patna,1.0,Satisfactory,52,PM2.5
2016-08-17,Patna,1.0,Satisfactory,55,PM2.5
2016-08-18,Patna,1.0,Good,43,PM2.5
2016-08-19,Patna,1.0,Satisfactory,57,PM2.5
2016-08-20,Patna,1.0,Satisfactory,97,PM2.5
2016-08-21,Patna,1.0,Satisfactory,84,PM2.5
2016-08-22,Patna,1.0,Good,48,PM2.5
2016-08-23,Patna,1.0,Satisfactory,58,PM2.5
2016-08-24,Patna,1.0,Moderate,121,PM2.5
2016-08-25,Patna,1.0,Moderate,178,PM2.5
2016-08-26,Patna,1.0,Moderate,132,PM2.5
2016-08-31,Patna,1.0,Satisfactory,91,PM2.5
2016-09-01,Patna,1.0,Satisfactory,63,PM2.5
2016-09-02,Patna,1.0,Satisfactory,69,PM2.5
2016-09-03,Patna,1.0,Good,42,PM2.5
2016-09-05,Patna,1.0,Moderate,152,PM2.5
2016-09-06,Patna,1.0,Satisfactory,98,PM2.5
2016-09-07,Patna,1.0,Satisfactory,86,CO
2016-09-08,Patna,1.0,Satisfactory,88,PM2.5
2016-09-09,Patna,1.0,Satisfactory,83,PM2.5
2016-09-10,Patna,1.0,Moderate,116,PM2.5
2016-09-11,Patna,1.0,Moderate,116,PM2.5
2016-09-12,Patna,1.0,Satisfactory,62,PM2.5
2016-09-13,Patna,1.0,Satisfactory,64,PM2.5
2016-09-14,Patna,1.0,Satisfactory,65,PM2.5
2016-09-15,Patna,1.0,Moderate,102,PM2.5
2016-09-16,Patna,1.0,Moderate,120,PM2.5
2016-09-17,Patna,1.0,Satisfactory,72,PM2.5
2016-09-18,Patna,1.0,Satisfactory,83,PM2.5
2016-09-21,Patna,1.0,Satisfactory,90,PM2.5
2016-09-22,Patna,1.0,Satisfactory,52,PM2.5
2016-09-23,Patna,1.0,Satisfactory,82,PM2.5
2016-09-24,Patna,1.0,Satisfactory,69,PM2.5
2016-09-27,Patna,1.0,Satisfactory,83,PM2.5
2016-09-28,Patna,1.0,Satisfactory,92,PM2.5
2016-09-29,Patna,1.0,Satisfactory,62,PM2.5
2016-09-30,Patna,1.0,Moderate,102,PM2.5
2016-10-03,Patna,1.0,Poor,226,PM2.5
2016-10-04,Patna,1.0,Moderate,196,PM2.5
2016-10-05,Patna,1.0,Moderate,192,PM2.5
2016-10-06,Patna,1.0,Moderate,140,PM2.5
2016-10-07,Patna,1.0,Moderate,127,PM2.5
2016-10-08,Patna,1.0,Moderate,111,PM2.5
2016-10-12,Patna,1.0,Poor,212,PM2.5
2016-10-13,Patna,1.0,Poor,210,PM2.5
2016-10-14,Patna,1.0,Moderate,162,PM2.5
2016-10-15,Patna,1.0,Poor,220,PM2.5
2016-10-20,Patna,1.0,Poor,253,PM2.5
2016-10-21,Patna,1.0,Poor,254,PM2.5
2016-10-22,Patna,1.0,Poor,265,PM2.5
2016-10-23,Patna,1.0,Poor,277,PM2.5
2016-10-24,Patna,1.0,Poor,274,PM2.5
2016-10-25,Patna,1.0,Very Poor,346,PM2.5
2016-10-26,Patna,1.0,Very Poor,337,PM2.5
2016-10-27,Patna,1.0,Very Poor,324,PM2.5
2016-10-28,Patna,1.0,Very Poor,309,PM2.5
2016-10-30,Patna,1.0,Very Poor,369,PM2.5
2016-10-31,Patna,1.0,Very Poor,381,PM2.5
2016-11-01,Patna,1.0,Very Poor,315,PM2.5
2016-11-02,Patna,1.0,Poor,287,PM2.5
2016-11-03,Patna,1.0,Poor,283,PM2.5
2016-11-04,Patna,1.0,Poor,246,PM2.5
2016-11-07,Patna,1.0,Very Poor,323,PM2.5
2016-11-11,Patna,1.0,Very Poor,344,PM2.5
2016-11-13,Patna,1.0,Very Poor,362,PM2.5
2016-11-14,Patna,1.0,Very Poor,316,PM2.5
2016-11-15,Patna,1.0,Poor,297,PM2.5
2016-11-16,Patna,1.0,Very Poor,309,PM2.5
2016-11-17,Patna,1.0,Very Poor,329,PM2.5
2016-11-18,Patna,1.0,Very Poor,368,PM2.5
2016-11-20,Patna,1.0,Severe,404,PM2.5
2016-11-21,Patna,1.0,Severe,404,PM2.5
2016-11-22,Patna,1.0,Severe,403,PM2.5
2016-11-24,Patna,1.0,Very Poor,399,PM2.5
2016-11-25,Patna,1.0,Very Poor,393,PM2.5
2016-11-26,Patna,1.0,Very Poor,392,PM2.5
2016-11-28,Patna,1.0,Severe,452,PM2.5
2016-11-29,Patna,1.0,Severe,476,PM2.5
2016-12-01,Patna,1.0,Very Poor,377,PM2.5
2016-12-03,Patna,1.0,Very Poor,400,PM2.5
2016-12-05,Patna,1.0,Very Poor,382,PM2.5
2016-12-06,Patna,1.0,Very Poor,390,PM2.5
2016-12-07,Patna,1.0,Very Poor,372,PM2.5
2016-12-08,Patna,1.0,Very Poor,347,PM2.5
2016-12-09,Patna,1.0,Very Poor,322,PM2.5
2016-12-10,Patna,1.0,Very Poor,364,PM2.5
2016-12-11,Patna,1.0,Very Poor,322,PM2.5
2016-12-15,Patna,1.0,Very Poor,385,PM2.5
2016-12-20,Patna,1.0,Very Poor,356,PM2.5
2016-12-21,Patna,1.0,Severe,440,PM2.5
2016-12-22,Patna,1.0,Severe,455,PM2.5
2016-12-23,Patna,1.0,Severe,448,PM2.5
2016-12-26,Patna,1.0,Severe,421,PM2.5
2016-12-27,Patna,1.0,Very Poor,370,PM2.5
2016-12-28,Patna,1.0,Very Poor,334,PM2.5
2016-12-29,Patna,1.0,Very Poor,376,PM2.5
2016-12-30,Patna,1.0,Very Poor,382,PM2.5
2016-12-31,Patna,1.0,Very Poor,335,PM2.5
2017-01-03,Patna,1.0,Very Poor,386,PM2.5
2017-01-04,Patna,1.0,Very Poor,344,PM2.5
2017-01-05,Patna,1.0,Very Poor,311,PM2.5
2017-01-06,Patna,1.0,Very Poor,363,PM2.5
2017-01-08,Patna,1.0,Very Poor,344,PM2.5
2017-01-10,Patna,1.0,Very Poor,343,PM2.5
2017-01-11,Patna,1.0,Poor,240,PM2.5
2017-01-12,Patna,1.0,Poor,264,PM2.5
2017-01-13,Patna,1.0,Very Poor,305,PM2.5
2017-01-14,Patna,1.0,Very Poor,317,PM2.5
2017-01-16,Patna,1.0,Very Poor,389,PM2.5
2017-01-17,Patna,1.0,Very Poor,392,PM2.5
2017-01-18,Patna,1.0,Severe,435,PM2.5
2017-01-19,Patna,1.0,Very Poor,354,PM2.5
2017-01-20,Patna,1.0,Poor,293,PM2.5
2017-01-21,Patna,1.0,Poor,258,PM2.5
2017-01-24,Patna,1.0,Very Poor,322,PM2.5
2017-01-25,Patna,1.0,Very Poor,392,PM2.5
2017-01-26,Patna,1.0,Severe,406,PM2.5
2017-01-27,Patna,1.0,Very Poor,370,PM2.5
2017-01-28,Patna,1.0,Moderate,162,PM2.5
2017-01-29,Patna,1.0,Moderate,159,PM2.5
2017-01-30,Patna,1.0,Poor,286,PM2.5
2017-01-31,Patna,1.0,Poor,291,PM2.5
2017-02-02,Patna,1.0,Very Poor,330,PM2.5
2017-02-03,Patna,1.0,Very Poor,365,PM2.5
2017-02-04,Patna,1.0,Very Poor,373,PM2.5
2017-02-05,Patna,1.0,Very Poor,399,PM2.5
2017-02-06,Patna,1.0,Very Poor,384,PM2.5
2017-02-07,Patna,1.0,Poor,287,PM2.5
2017-02-08,Patna,1.0,Poor,207,PM2.5
2017-03-02,Patna,1.0,Poor,259,PM2.5
2017-03-05,Patna,1.0,Poor,272,PM2.5
2017-03-07,Patna,1.0,Moderate,181,PM2.5
2017-03-08,Patna,1.0,Poor,274,PM2.5
2017-03-11,Patna,1.0,Moderate,198,PM2.5
2017-03-17,Patna,1.0,Poor,223,PM2.5
2017-03-18,Patna,1.0,Poor,254,PM2.5
2017-03-21,Patna,1.0,Poor,209,PM2.5
2017-03-23,Patna,1.0,Poor,281,PM2.5
2017-03-28,Patna,1.0,Poor,286,PM2.5
2017-03-29,Patna,1.0,Poor,227,PM2.5
2017-03-30,Patna,1.0,Poor,221,PM2.5
2017-04-01,Patna,1.0,Poor,249,PM2.5
2017-04-02,Patna,1.0,Poor,227,PM2.5
2017-04-03,Patna,1.0,Poor,253,PM2.5
2017-04-05,Patna,1.0,Moderate,111,PM2.5
2017-04-07,Patna,1.0,Moderate,186,PM2.5
2017-04-08,Patna,1.0,Poor,216,PM2.5
2017-04-12,Patna,1.0,Poor,287,PM2.5
2017-04-13,Patna,1.0,Poor,233,PM2.5
2017-04-15,Patna,1.0,Poor,255,PM2.5
2017-04-16,Patna,1.0,Moderate,127,PM2.5
2017-04-17,Patna,1.0,Moderate,121,PM2.5
2017-04-18,Patna,1.0,Moderate,164,PM2.5
2017-04-21,Patna,1.0,Moderate,118,PM2.5
2017-04-25,Patna,1.0,Poor,216,PM2.5
2017-04-26,Patna,1.0,Moderate,153,PM2.5
2017-05-18,Patna,1.0,Moderate,123,PM2.5
2017-05-22,Patna,1.0,Moderate,158,PM2.5
2017-05-23,Patna,1.0,Moderate,186,PM2.5
2017-05-24,Patna,1.0,Moderate,155,PM2.5
2017-05-25,Patna,1.0,Moderate,189,PM2.5
2017-05-26,Patna,1.0,Satisfactory,95,PM2.5
2017-05-27,Patna,1.0,Satisfactory,79,PM2.5
2017-05-29,Patna,1.0,Satisfactory,93,PM2.5
2017-06-01,Patna,1.0,Moderate,126,PM2.5
2017-06-02,Patna,1.0,Moderate,174,PM2.5
2017-06-03,Patna,1.0,Moderate,175,PM2.5
2017-06-05,Patna,1.0,Moderate,140,PM2.5
2017-06-07,Patna,1.0,Moderate,128,PM2.5
2017-06-08,Patna,1.0,Moderate,127,PM2.5
2017-06-09,Patna,1.0,Moderate,143,PM2.5
2017-06-10,Patna,1.0,Moderate,144,PM2.5
2017-06-13,Patna,1.0,Very Poor,339,PM2.5
2017-06-14,Patna,1.0,Moderate,156,PM2.5
2017-06-15,Patna,1.0,Moderate,132,PM2.5
2017-06-16,Patna,1.0,Satisfactory,91,PM2.5
2017-06-19,Patna,1.0,Moderate,139,PM2.5
2017-06-20,Patna,1.0,Satisfactory,85,PM2.5
2017-06-22,Patna,1.0,Moderate,128,PM2.5
2017-06-23,Patna,1.0,Satisfactory,87,PM2.5
2017-06-24,Patna,1.0,Moderate,166,PM2.5
2017-06-25,Patna,1.0,Moderate,119,PM2.5
2017-06-26,Patna,1.0,Satisfactory,70,PM2.5
2017-06-27,Patna,1.0,Satisfactory,59,PM2.5
2017-06-28,Patna,1.0,Satisfactory,66,PM2.5
2017-06-29,Patna,1.0,Satisfactory,68,PM2.5
2017-07-01,Patna,1.0,Satisfactory,75,PM2.5
2017-07-02,Patna,1.0,Satisfactory,74,PM2.5
2017-07-03,Patna,1.0,Good,48,PM2.5
2017-07-04,Patna,1.0,Good,45,PM2.5
2017-07-05,Patna,1.0,Good,47,PM2.5
2017-07-06,Patna,1.0,Satisfactory,81,PM2.5
2017-07-07,Patna,1.0,Satisfactory,80,PM2.5
2017-07-08,Patna,1.0,Satisfactory,82,PM2.5
2017-07-10,Patna,1.0,Satisfactory,93,PM2.5
2017-07-12,Patna,1.0,Moderate,121,PM2.5
2017-07-13,Patna,1.0,Satisfactory,79,PM2.5
2017-07-14,Patna,1.0,Satisfactory,85,PM2.5
2017-07-15,Patna,1.0,Satisfactory,81,PM2.5
2017-07-17,Patna,1.0,Moderate,118,PM2.5
2017-07-18,Patna,1.0,Satisfactory,78,PM2.5
2017-07-19,Patna,1.0,Satisfactory,68,PM2.5
2017-07-20,Patna,1.0,Satisfactory,54,PM2.5
2017-07-23,Patna,1.0,Satisfactory,66,PM2.5
2017-07-24,Patna,1.0,Satisfactory,65,PM2.5
2017-07-25,Patna,1.0,Satisfactory,63,PM2.5
2017-07-26,Patna,1.0,Satisfactory,54,PM2.5
2017-07-27,Patna,1.0,Satisfactory,85,PM2.5
2017-07-28,Patna,1.0,Moderate,136,PM2.5
2017-07-29,Patna,1.0,Moderate,131,PM2.5
2017-07-31,Patna,1.0,Moderate,103,PM2.5
2017-08-01,Patna,1.0,Satisfactory,75,PM2.5
2017-08-02,Patna,1.0,Satisfactory,74,PM2.5
2017-08-03,Patna,1.0,Satisfactory,89,CO
2017-08-04,Patna,1.0,Satisfactory,86,PM2.5
2017-08-05,Patna,1.0,Moderate,152,PM2.5
2017-08-08,Patna,1.0,Moderate,108,PM2.5
2017-08-09,Patna,1.0,Satisfactory,84,PM2.5
2017-08-10,Patna,1.0,Satisfactory,79,PM2.5
2017-08-11,Patna,1.0,Satisfactory,77,PM2.5
2017-08-12,Patna,1.0,Satisfactory,67,PM2.5
2017-08-14,Patna,1.0,Satisfactory,72,PM2.5
2017-08-16,Patna,1.0,Satisfactory,79,PM2.5
2017-08-17,Patna,1.0,Moderate,104,PM2.5
2017-09-06,Patna,1.0,Moderate,139,PM2.5
2017-09-07,Patna,1.0,Moderate,186,PM2.5
2017-09-08,Patna,1.0,Moderate,144,PM2.5
2017-09-13,Patna,1.0,Satisfactory,100,PM2.5
2017-09-14,Patna,1.0,Moderate,124,PM2.5
2017-09-15,Patna,1.0,Poor,231,PM2.5
2017-09-16,Patna,1.0,Moderate,195,PM2.5
2017-09-17,Patna,1.0,Moderate,194,PM2.5
2017-09-18,Patna,1.0,Satisfactory,70,PM2.5
2017-09-19,Patna,1.0,Satisfactory,63,PM2.5
2017-09-22,Patna,1.0,Satisfactory,76,PM2.5
2017-09-23,Patna,1.0,Moderate,121,PM2.5
2017-09-25,Patna,1.0,Moderate,183,PM2.5
2017-09-26,Patna,1.0,Moderate,116,PM2.5
2017-09-27,Patna,1.0,Moderate,160,PM2.5
2017-09-28,Patna,1.0,Moderate,183,PM2.5
2017-09-29,Patna,1.0,Moderate,127,PM2.5
2017-09-30,Patna,1.0,Moderate,103,PM2.5
2017-10-02,Patna,1.0,Moderate,122,O3
2017-10-03,Patna,1.0,Satisfactory,66,PM2.5
2017-10-04,Patna,1.0,Moderate,160,PM2.5
2017-10-05,Patna,1.0,Moderate,181,PM2.5
2017-10-06,Patna,1.0,Moderate,187,PM2.5
2017-10-07,Patna,1.0,Satisfactory,77,PM2.5
2017-10-09,Patna,1.0,Moderate,154,PM2.5
2017-10-10,Patna,1.0,Satisfactory,85,PM2.5
2017-10-11,Patna,1.0,Satisfactory,62,PM2.5
2017-10-12,Patna,1.0,Moderate,113,PM2.5
2017-10-13,Patna,1.0,Moderate,176,PM2.5
2017-10-16,Patna,1.0,Poor,291,PM2.5
2017-10-17,Patna,1.0,Very Poor,328,PM2.5
2017-10-18,Patna,1.0,Very Poor,306,PM2.5
2017-10-19,Patna,1.0,Poor,216,PM2.5
2017-10-20,Patna,1.0,Poor,209,PM2.5
2017-10-21,Patna,1.0,Satisfactory,72,PM2.5
2017-10-22,Patna,1.0,Moderate,125,PM2.5
2017-10-23,Patna,1.0,Poor,276,PM2.5
2017-10-24,Patna,1.0,Very Poor,387,PM2.5
2017-10-25,Patna,1.0,Very Poor,340,PM2.5
2017-10-26,Patna,1.0,Very Poor,332,PM2.5
2017-10-27,Patna,1.0,Very Poor,337,PM2.5
2017-10-28,Patna,1.0,Very Poor,319,PM2.5
2017-10-29,Patna,1.0,Poor,275,PM2.5
2017-10-30,Patna,1.0,Poor,255,PM2.5
2017-10-31,Patna,1.0,Moderate,126,PM2.5
2017-11-01,Patna,1.0,Moderate,140,PM2.5
2017-11-02,Patna,1.0,Poor,234,PM2.5
2017-11-03,Patna,1.0,Poor,230,PM2.5
2017-11-04,Patna,1.0,Poor,282,PM2.5
2017-11-05,Patna,1.0,Poor,247,PM2.5
2017-11-06,Patna,1.0,Poor,249,PM2.5
2017-11-07,Patna,1.0,Poor,264,PM2.5
2017-11-10,Patna,1.0,Severe,428,PM2.5
2017-11-11,Patna,1.0,Severe,435,PM2.5
2017-11-12,Patna,1.0,Very Poor,383,PM2.5
2017-11-13,Patna,1.0,Very Poor,353,PM2.5
2017-11-14,Patna,1.0,Severe,404,PM2.5
2017-11-15,Patna,1.0,Poor,300,PM2.5
2017-11-16,Patna,1.0,Poor,219,PM2.5
2017-11-17,Patna,1.0,Poor,214,PM2.5
2017-11-18,Patna,1.0,Poor,246,PM2.5
2017-11-20,Patna,1.0,Very Poor,359,PM2.5
2017-11-21,Patna,1.0,Poor,289,PM2.5
2017-11-22,Patna,1.0,Very Poor,343,PM2.5
2017-11-23,Patna,1.0,Satisfactory,75,O3
2017-11-25,Patna,1.0,Satisfactory,84,O3
2017-11-26,Patna,1.0,Satisfactory,77,O3
2017-11-28,Patna,1.0,Satisfactory,67,O3
2017-11-29,Patna,1.0,Satisfactory,69,O3
2017-11-30,Patna,1.0,Satisfactory,54,O3
2017-12-03,Patna,1.0,Good,50,O3
2017-12-04,Patna,1.0,Satisfactory,60,CO
2017-12-06,Patna,1.0,Satisfactory,71,CO
2017-12-07,Patna,1.0,Severe,421,PM2.5
2017-12-10,Patna,1.0,Very Poor,338,PM2.5
2017-12-11,Patna,1.0,Very Poor,346,PM2.5
2017-12-12,Patna,1.0,Very Poor,392,PM2.5
2017-12-13,Patna,1.0,Very Poor,359,PM2.5
2017-12-14,Patna,1.0,Poor,295,PM2.5
2017-12-17,Patna,1.0,Very Poor,369,PM2.5
2017-12-18,Patna,1.0,Severe,407,PM2.5
2017-12-21,Patna,1.0,Very Poor,381,PM2.5
2017-12-22,Patna,1.0,Very Poor,326,PM2.5
2017-12-23,Patna,1.0,Very Poor,354,PM2.5
2017-12-26,Patna,1.0,Very Poor,363,PM2.5
2017-12-27,Patna,1.0,Very Poor,359,PM2.5
2017-12-28,Patna,1.0,Severe,461,PM2.5
2017-12-29,Patna,1.0,Severe,402,PM2.5
2017-12-30,Patna,1.0,Very Poor,396,PM2.5
2017-12-31,Patna,1.0,Very Poor,381,PM2.5
2018-01-04,Patna,1.0,Very Poor,389,PM2.5
2018-01-05,Patna,1.0,Very Poor,397,PM2.5
2018-01-06,Patna,1.0,Very Poor,391,PM2.5
2018-01-07,Patna,1.0,Very Poor,384,PM2.5
2018-01-10,Patna,1.0,Very Poor,376,PM2.5
2018-01-11,Patna,1.0,Very Poor,346,PM2.5
2018-01-12,Patna,1.0,Very Poor,372,PM2.5
2018-01-14,Patna,1.0,Very Poor,366,PM2.5
2018-01-16,Patna,1.0,Very Poor,330,PM2.5
2018-01-17,Patna,1.0,Satisfactory,91,CO
2018-01-19,Patna,1.0,Very Poor,325,PM2.5
2018-01-20,Patna,1.0,Poor,203,PM2.5
2018-01-21,Patna,1.0,Poor,291,PM2.5
2018-01-22,Patna,1.0,Very Poor,357,PM2.5
2018-01-23,Patna,1.0,Very Poor,366,PM2.5
2018-01-24,Patna,1.0,Very Poor,359,PM2.5
2018-01-25,Patna,1.0,Poor,261,PM2.5
2018-01-26,Patna,1.0,Poor,234,PM2.5
2018-01-27,Patna,1.0,Poor,217,PM2.5
2018-01-28,Patna,1.0,Very Poor,393,PM2.5
2018-01-30,Patna,1.0,Very Poor,341,PM2.5
2018-01-31,Patna,1.0,Severe,416,PM2.5
2018-02-01,Patna,1.0,Very Poor,382,PM2.5
2018-02-02,Patna,1.0,Very Poor,358,PM2.5
2018-02-03,Patna,1.0,Very Poor,329,PM2.5
2018-02-06,Patna,1.0,Moderate,156,PM2.5
2018-02-07,Patna,1.0,Very Poor,303,PM2.5
2018-02-08,Patna,1.0,Poor,275,PM2.5
2018-02-09,Patna,1.0,Poor,214,PM2.5
2018-02-10,Patna,1.0,Poor,269,PM2.5
2018-02-11,Patna,1.0,Poor,299,PM2.5
2018-02-13,Patna,1.0,Very Poor,336,PM2.5
2018-02-14,Patna,1.0,Poor,275,PM2.5
2018-02-15,Patna,1.0,Moderate,178,PM2.5
2018-02-16,Patna,1.0,Poor,284,PM2.5
2018-02-17,Patna,1.0,Very Poor,308,PM2.5
2018-02-19,Patna,1.0,Very Poor,320,PM2.5
2018-02-20,Patna,1.0,Very Poor,318,PM2.5
2018-02-21,Patna,1.0,Very Poor,325,PM2.5
2018-02-22,Patna,1.0,Very Poor,360,PM2.5
2018-02-23,Patna,1.0,Very Poor,316,PM2.5
2018-02-24,Patna,1.0,Very Poor,378,PM2.5
2018-02-26,Patna,1.0,Very Poor,338,PM2.5
2018-02-27,Patna,1.0,Poor,270,PM2.5
2018-02-28,Patna,1.0,Poor,288,PM2.5
2018-03-01,Patna,1.0,Poor,278,PM2.5
2018-03-02,Patna,1.0,Very Poor,314,PM2.5
2018-03-03,Patna,1.0,Moderate,183,PM2.5
2018-03-04,Patna,1.0,Moderate,175,OZONE
2018-03-05,Patna,1.0,Poor,258,PM2.5
2018-03-06,Patna,1.0,Moderate,175,PM2.5
2018-03-07,Patna,1.0,Moderate,178,OZONE
2018-03-10,Patna,1.0,Poor,246,PM2.5
2018-03-12,Patna,1.0,Poor,295,PM2.5
2018-03-13,Patna,1.0,Poor,270,PM2.5
2018-03-14,Patna,1.0,Very Poor,310,PM2.5
2018-03-15,Patna,1.0,Very Poor,337,PM2.5
2018-03-16,Patna,1.0,Very Poor,317,PM2.5
2018-03-17,Patna,1.0,Poor,218,PM2.5
2018-03-18,Patna,1.0,Moderate,199,PM2.5
2018-03-19,Patna,1.0,Poor,247,OZONE
2018-03-20,Patna,1.0,Poor,245,PM2.5
2018-03-21,Patna,1.0,Poor,278,PM2.5
2018-03-22,Patna,1.0,Very Poor,312,PM2.5
2018-03-23,Patna,1.0,Poor,293,PM2.5
2018-03-24,Patna,1.0,Poor,210,PM2.5
2018-03-25,Patna,1.0,Poor,247,PM2.5
2018-03-26,Patna,1.0,Poor,206,PM2.5
2018-03-27,Patna,1.0,Poor,264,PM2.5
2018-03-28,Patna,1.0,Poor,274,PM2.5
2018-03-29,Patna,1.0,Poor,298,PM2.5
2018-03-30,Patna,1.0,Poor,275,PM2.5
2018-03-31,Patna,1.0,Moderate,160,OZONE
2018-04-01,Patna,1.0,Moderate,138,PM2.5
2018-04-03,Patna,1.0,Poor,256,OZONE
2018-04-04,Patna,1.0,Poor,208,OZONE
2018-04-05,Patna,1.0,Moderate,144,PM2.5
2018-04-06,Patna,1.0,Moderate,143,PM2.5
2018-04-07,Patna,1.0,Moderate,143,PM2.5
2018-04-08,Patna,1.0,Poor,217,PM2.5
2018-04-09,Patna,1.0,Moderate,187,PM2.5
2018-04-10,Patna,1.0,Poor,234,PM2.5
2018-04-11,Patna,1.0,Moderate,162,PM2.5
2018-04-12,Patna,1.0,Moderate,197,PM2.5
2018-04-13,Patna,1.0,Poor,205,PM2.5
2018-04-14,Patna,1.0,Moderate,191,PM2.5
2018-04-16,Patna,1.0,Poor,212,PM2.5
2018-04-18,Patna,1.0,Poor,210,PM2.5
2018-04-19,Patna,1.0,Poor,234,PM2.5
2018-04-20,Patna,1.0,Poor,214,PM2.5
2018-04-21,Patna,1.0,Poor,254,PM2.5
2018-04-22,Patna,1.0,Poor,218,PM2.5
2018-04-23,Patna,1.0,Moderate,181,OZONE
2018-04-25,Patna,1.0,Poor,284,PM2.5
2018-04-26,Patna,1.0,Moderate,161,OZONE
2018-04-27,Patna,1.0,Moderate,191,OZONE
2018-04-29,Patna,1.0,Moderate,172,OZONE
2018-04-30,Patna,1.0,Moderate,173,OZONE
2018-05-01,Patna,1.0,Moderate,100,OZONE
2018-05-02,Patna,1.0,Moderate,100,OZONE
2018-05-03,Patna,1.0,Moderate,121,OZONE
2018-05-04,Patna,1.0,Moderate,166,OZONE
2018-05-05,Patna,1.0,Poor,261,OZONE
2018-05-06,Patna,1.0,Poor,210,PM2.5
2018-05-07,Patna,1.0,Poor,238,PM2.5
2018-05-08,Patna,1.0,Poor,226,PM2.5
2018-05-09,Patna,1.0,Moderate,186,PM2.5
2018-05-10,Patna,1.0,Poor,208,PM2.5
2018-05-11,Patna,1.0,Poor,246,OZONE
2018-05-12,Patna,1.0,Moderate,166,OZONE
2018-05-13,Patna,1.0,Moderate,127,OZONE
2018-05-14,Patna,1.0,Poor,238,OZONE
2018-05-15,Patna,1.0,Moderate,188,OZONE
2018-05-16,Patna,1.0,Moderate,168,OZONE
2018-05-17,Patna,1.0,Moderate,164,OZONE
2018-05-19,Patna,1.0,Moderate,167,PM2.5